Content
SEND FEEDBACK

Daily
Averages
Monthly
Summary
Switzerland

GENEVA, SWITZERLAND


Home > Europe > Switzerland
Elevation: 1364 feet     Latitude: 46 15N     Longitude: 006 08E

WEATHER
 
SELECT A DAY
Number of Records: 306,215;   Date Range: 7/1/96 - 9/16/14
 
SHARE

PRINT THIS DATA

[ ← Previous Day ]
WEATHER ALMANAC - FEBRUARY 7, 2013
[ Next Day → ]
[ °C ]   °F
Weather ElementAverageHighLow
Temperature32.6 °F37.4 °F (3:50 pm)28.4 °F (5:50 am)
Dewpoint26.6 °F30.2 °F (12:50 am)20 °F (7:00 am)
Humidity77.1 %93 % (12:50 am)51 % (3:00 pm)
Barometer29.91 in30.05 in (7:00 pm)29.71 in (12:20 am)
Wind Speed2.9 mph6.9 mph (7:00 am)
Weather ElementAverage
Visibility7.1 mi
Wind DirectionENE (67.7 °)

Weather ElementTotal
Precipitation---
Heating Degree Days32.1 (Base 65)
Averaged from 66 records on February 7, 2013
WEATHER CONDITIONS BREAKOUT
WIND DIRECTION BREAKOUT
WEATHER BY HOUR - FEBRUARY 7, 2013
[ °C ]   °F
Local TimeTemperatureDewpointHumidityBarometerVisibilityWind DirectionWind SpeedGust SpeedPrecipitationEventsConditions
12:20 AM32.0 °F28.4 °F87 %29.71 in6.2 miVariable2.3 mphMostly Cloudy
12:50 AM32.0 °F30.2 °F93 %29.71 in6.2 miWSW (250°)3.5 mphOvercast
1:00 AM32.0 °F29.0 °F83 %29.79 in7.0 miSW (220°)2.3 mphOvercast
1:20 AM32.0 °F30.2 °F93 %29.74 in6.2 miWSW (250°)3.5 mphMostly Cloudy
1:50 AM32.0 °F30.2 °F93 %29.74 in6.2 miVariable2.3 mphMostly Cloudy
2:00 AM31.0 °F29.0 °F89 %29.80 inWest (270°)2.3 mph
2:50 AM32.0 °F28.4 °F87 %29.74 in6.2 miVariable3.5 mphMostly Cloudy
3:00 AM32.0 °F28.0 °F81 %29.82 inSW (220°)4.6 mph
3:20 AM32.0 °F28.4 °F87 %29.74 in6.2 miVariable2.3 mphMostly Cloudy
3:50 AM32.0 °F30.2 °F93 %29.74 in6.2 miVariable1.2 mphMostly Cloudy
4:20 AM30.2 °F28.4 °F93 %29.77 in6.2 miSW (230°)2.3 mphMostly Cloudy
4:50 AM30.2 °F28.4 °F93 %29.77 in6.2 miCalmMostly Cloudy
5:00 AM29.0 °F27.0 °F90 %29.85 inNNW (330°)3.5 mph
5:20 AM30.2 °F28.4 °F93 %29.77 in6.2 miVariable2.3 mphMostly Cloudy
5:50 AM28.4 °F26.6 °F93 %29.80 in6.2 miCalmScattered Clouds
6:00 AM29.0 °F27.0 °F88 %29.88 inNorth2.3 mph
6:20 AM28.4 °F26.6 °F93 %29.80 in6.2 miVariable2.3 mphScattered Clouds
6:50 AM30.2 °F21.2 °F69 %29.80 in6.2 miNorth (360°)4.6 mphScattered Clouds
7:00 AM29.0 °F20.0 °F59 %29.90 in22.0 miNorth6.9 mphScattered Clouds
7:20 AM30.2 °F21.2 °F69 %29.83 in6.2 miVariable3.5 mphScattered Clouds
7:50 AM28.4 °F23.0 °F80 %29.83 in6.2 miVariable2.3 mphMostly Cloudy
8:00 AM30.0 °F22.0 °F61 %29.92 inNNW (340°)2.3 mph
8:20 AM30.2 °F23.0 °F75 %29.86 in6.2 miVariable1.2 mphMostly Cloudy
8:50 AM32.0 °F24.8 °F75 %29.86 in6.2 miCalmMostly Cloudy
9:00 AM32.0 °F24.0 °F61 %29.95 inENE (70°)2.3 mph
9:20 AM32.0 °F24.8 °F75 %29.89 in6.2 miVariable2.3 mphMostly Cloudy
9:50 AM32.0 °F26.6 °F80 %29.89 in6.2 miCalmMostly Cloudy
10:20 AM33.8 °F26.6 °F75 %29.92 in6.2 miVariable1.2 mphMostly Cloudy
10:50 AM33.8 °F23.0 °F65 %29.92 in6.2 miEast (80°)4.6 mphMostly Cloudy
11:00 AM33.0 °F25.0 °F62 %29.99 inEast (90°)6.9 mph
11:20 AM32.0 °F26.6 °F80 %29.95 in6.2 miEast (90°)6.9 mphSnowLight Snow Showers
11:50 AM33.8 °F26.6 °F75 %29.95 in6.2 miVariable2.3 mphMostly Cloudy
12:00 PM33.0 °F26.0 °F68 %30.01 inSE (130°)2.3 mph
12:20 PM33.8 °F26.6 °F75 %29.95 in6.2 miESE (110°)3.5 mphMostly Cloudy
12:50 PM33.8 °F26.6 °F75 %29.95 in6.2 miVariable2.3 mphMostly Cloudy
1:00 PM34.0 °F27.0 °F67 %30.01 in19.0 miEast (90°)3.5 mphMostly Cloudy
1:20 PM35.6 °F26.6 °F70 %29.95 in6.2 miESE (110°)4.6 mphMostly Cloudy
1:50 PM35.6 °F24.8 °F65 %29.95 in6.2 miEast (90°)4.6 mphMostly Cloudy
2:00 PM36.0 °F26.0 °F54 %30.00 inEast (90°)4.6 mph
2:20 PM35.6 °F26.6 °F70 %29.95 in6.2 miSE (130°)4.6 mphMostly Cloudy
2:50 PM35.6 °F24.8 °F65 %29.95 in6.2 miVariable1.2 mphMostly Cloudy
3:00 PM36.0 °F24.0 °F51 %30.00 inNNE (20°)3.5 mph
3:20 PM35.6 °F26.6 °F70 %29.95 in6.2 miVariable2.3 mphMostly Cloudy
3:50 PM37.4 °F26.6 °F65 %29.95 in6.2 miVariable2.3 mphMostly Cloudy
4:20 PM35.6 °F26.6 °F70 %29.95 in6.2 miVariable2.3 mphMostly Cloudy
4:50 PM35.6 °F26.6 °F70 %29.95 in6.2 miVariable1.2 mphMostly Cloudy
5:00 PM35.0 °F26.0 °F60 %30.01 inNE (40°)3.5 mph
5:20 PM35.6 °F26.6 °F70 %29.95 in6.2 miNE (50°)1.2 mphMostly Cloudy
5:50 PM33.8 °F28.4 °F81 %29.95 in6.2 miNNE (30°)3.5 mphMostly Cloudy
6:00 PM34.0 °F28.0 °F69 %30.02 inNNE (30°)3.5 mph
6:20 PM33.8 °F28.4 °F81 %29.98 in6.2 miVariable2.3 mphMostly Cloudy
6:51 PM33.8 °F28.4 °F81 %29.98 in5.6 miVariable2.3 mphSnowSnow Showers
7:00 PM33.0 °F27.0 °F70 %30.05 in22.0 miNE (50°)4.6 mphMostly Cloudy
7:20 PM32.0 °F26.6 °F80 %29.98 in6.2 miVariable1.2 mphMostly Cloudy
7:50 PM33.8 °F26.6 °F75 %29.98 in6.2 miVariable1.2 mphMostly Cloudy
8:00 PM33.0 °F25.0 °F64 %30.04 inENE (60°)2.3 mph
8:20 PM33.8 °F26.6 °F75 %29.98 in6.2 miEast (90°)3.5 mphMostly Cloudy
8:50 PM32.0 °F28.4 °F87 %29.98 in6.2 miVariable2.3 mphMostly Cloudy
9:00 PM32.0 °F28.0 °F79 %30.04 inNE (50°)3.5 mph
9:20 PM32.0 °F28.4 °F87 %29.98 in6.2 miVariable2.3 mphMostly Cloudy
9:50 PM32.0 °F28.4 °F87 %29.98 in6.2 miVariable2.3 mphMostly Cloudy
10:20 PM32.0 °F28.4 °F87 %29.98 in6.2 miVariable2.3 mphMostly Cloudy
10:50 PM32.0 °F28.4 °F87 %29.98 in5.6 miVariable2.3 mphSnowLight Snow Showers
11:00 PM33.0 °F28.0 °F75 %30.04 inSE (130°)3.5 mph
11:20 PM32.0 °F28.4 °F87 %29.98 in6.2 miSE (140°)4.6 mphMostly Cloudy
11:50 PM32.0 °F26.6 °F80 %29.98 in6.2 miSW (230°)5.8 mphMostly Cloudy
Hourly data recorded from LSGG, located miles away from Geneva, Switzerland







STORIES FROM OUR PARTNERS